Regional Weather Roundup
Issued by NWS

Home | Current Version | Previous Version | Text Only | Print | Product List | Glossary Off
Versions: 1 2 3 4 5 6 7 8 9 10 11 12 13 14 15 16 17 18 19 20 21 22 23 24 25 26 27 28 29 30 31 32 33 34 35 36 37 38 39 40 41 42 43 44 45 46 47 48 49 50

000
ASUS45 KBOI 291410
RWRID

IDAHO REGIONAL WEATHER ROUNDUP
NATIONAL WEATHER SERVICE BOISE ID
800 AM MDT WED MAR 29 2017

NOTE: "FAIR" INDICATES FEW OR NO CLOUDS BELOW 12000 FEET
WITH NO SIGNIFICANT WEATHER AND/OR OBSTRUCTIONS TO VISIBILITY

IDZ012-014-291500-
SOUTHWEST IDAHO


CITY           SKY/WX    TMP DP  RH WIND       PRES   REMARKS
BOISE          CLOUDY    44  32  62 SE9       30.17F
CALDWELL       CLOUDY    42  34  73 E5        30.18F
MOUNTAIN HOME  MOCLDY    36  36 100 E7        30.19F WCI  31
$$

IDZ016-017-291500-
SOUTHCENTRAL IDAHO


CITY           SKY/WX    TMP DP  RH WIND       PRES   REMARKS
BURLEY         CLEAR     35  27  72 SW8       30.22R WCI  29
JEROME         CLEAR     34  29  82 SE3       30.22S
TWIN FALLS     CLEAR     36  28  73 S13       30.22R WCI  27
$$

IDZ019>023-291500-
SOUTHEAST IDAHO


CITY           SKY/WX    TMP DP  RH WIND       PRES   REMARKS
IDAHO FALLS    CLOUDY    35  29  78 S9        30.22S WCI  28
POCATELLO      CLOUDY    36  29  75 SW7       30.23R WCI  30
REXBURG        PTCLDY    34  28  79 S6        30.22R WCI  29
$$

IDZ006-010-011-018-031-032-291500-
CENTRAL IDAHO MOUNTAINS


CITY           SKY/WX    TMP DP  RH WIND       PRES   REMARKS
MCCALL         LGT SNOW  33  31  92 CALM      30.12S FOG
HAILEY         PTCLDY    30  23  74 NW5       30.22R WCI  25
STANLEY          N/A     21  18  88 CALM      30.20F
SALMON         MOCLDY    27  23  86 CALM      30.16S
CHALLIS        CLOUDY    30  25  81 CALM      30.17R
$$

IDZ002-004-006-007-026-291500-
NORTHERN IDAHO


CITY           SKY/WX    TMP DP  RH WIND       PRES   REMARKS
LEWISTON       LGT RAIN  44  41  89 S7        30.05F
LOWELL           N/A     41  38  89 N5        30.12F
COEUR D`ALENE  RAIN      40  38  93 CALM      30.05S
MULLAN PASS    SNOW      30  29  96 VRB3      29.98F VSB 1/4
$$



USA.gov is the U.S. government's official web portal to all federal, state and local government web resources and services.